[[{"header":{"parameterUnit":"m.s-1","parameterCategory":1,"la1":30.2991,"la2":30.254,"lo1":-89.0895,"lo2":-89.0444,"dy":0.0017,"dx":0.0017,"nx":28,"ny":28,"refTime":"2023-08-30T03:00:00:Z","depth":0,"parameterNumber":2,"parameterNumberName":"U-component_of_WINDS"},"data":[0,0,0,0,0,0,0,0,0,0,0,0,0,0,0,0,0,0,0,0,0,0,0,0,0,0,0,0,0,0,0,0,0,0,0,0,0,0,0,0,0,0,0,0,0,0,0,0,0,0,0,0,0,0,0,0,0,0,-2.9956,-2.9956,0,-2.997,-2.997,-2.997,-2.9889,-2.9886,-2.9884,-2.9882,-2.9897,-2.9899,-2.9902,0,0,0,0,0,0,0,0,0,0,0,0,0,-2.9861,-2.9863,-2.9956,-2.9957,-2.9957,-2.997,-2.997,-2.997,-2.9889,-2.9886,-2.9883,-2.9881,-2.9896,-2.9899,-2.9902,0,0,0,0,0,0,0,0,0,0,0,0,0,-2.9891,-2.9863,-2.9956,-2.9918,-2.9914,-2.997,-2.997,-2.997,-2.989,-2.9886,-2.9883,-2.9879,-2.9895,-2.9899,-2.9902,-2.9996,0,0,-2.9914,-2.9916,0,0,0,0,0,0,0,0,-2.9889,-2.9895,-2.9923,-2.992,-2.9917,-2.9924,-2.9942,-2.9979,-2.9891,-2.9899,-2.9882,-2.9878,-2.9909,-2.9911,-2.9921,-2.9996,-2.9997,-2.9914,-2.9917,-2.9918,-2.9919,0,0,0,0,0,0,0,-2.9887,-2.9894,-2.9962,-2.9924,-2.992,-2.99,-2.99,-2.9948,-2.9923,-2.9898,-2.9892,-2.9895,-2.9906,-2.9918,-2.9921,-2.9997,-2.9914,-2.9918,-2.992,-2.9922,-3.015,-3.0154,0,0,0,0,0,0,-2.989,-2.9892,-2.9961,-2.9962,-2.9894,-2.9904,-2.9905,-2.9925,-2.9922,-2.9919,-2.9898,-2.9891,-2.9913,-2.9917,-2.9921,-3.0031,-2.9918,-2.9922,-2.9924,-3.0146,-3.0151,-3.0155,0,0,0,0,0,0,-2.9889,-2.9897,-2.9961,-2.9926,-2.9932,-2.991,-2.9933,-2.9927,-2.9939,-2.9922,-2.9917,-2.9914,-2.991,-2.9916,-2.9978,-3.0031,-2.9924,-2.9927,-3.0142,-3.0148,-3.0153,-3.0252,0,0,0,0,0,0,-2.9886,-2.9897,-2.9932,-2.9927,-2.9934,-3.0017,-2.9936,-2.993,-2.9946,-2.9937,-2.9937,-2.9933,-2.9908,-2.9973,-2.9982,-3.0034,-2.993,-3.0137,-3.0145,-3.0151,-3.0244,-3.026,-3.0274,0,0,0,0,0,-2.9883,-2.996,-2.9935,-2.9943,-2.9978,-3.002,-3.0025,-2.9994,-2.995,-2.9986,-2.9975,-2.9933,-3.0023,-2.998,-2.9989,-3.0043,-3.0134,-3.0143,-3.0151,-3.0237,-3.0257,-3.0274,0,0,0,0,0,0,-2.9972,-2.9958,-2.993,-3.0007,-3.0016,-3.0007,-3.005,-3.0016,-3.0037,-3.0028,-2.9989,-2.999,-3.0059,-3.0057,-3.0009,-3.0134,-3.0071,-3.0082,-3.0133,-3.0152,-3.0167,-3.0166,-2.9933,0,0,0,0,0,-3.0001,-3.0036,-3.0022,-3.0091,-3.0097,-3.0073,-3.0091,-3.0066,-3.0073,-3.0077,-3.007,-3.0079,-3.0109,-3.013,-3.0157,-3.0242,-3.0241,-3.0284,-3.0299,-3.0312,-3.0322,-3.0368,-3.0387,-3.0183,-3.0183,-3.0183,0,0,-3.006,-3.0057,-3.0082,-3.0109,-3.0113,-3.0151,-3.0077,-3.012,-3.0148,-3.0083,-3.0142,-3.0137,-3.0144,-3.0219,-3.0251,-3.022,-3.0378,-3.0323,-3.0333,-3.0336,-3.0379,-3.0398,-3.0415,-3.0189,-3.0188,-3.0187,0,0,-3.0188,-3.0189,-3.0247,-3.0252,-3.0259,-3.0242,-3.0256,-3.0252,-3.0247,-3.0305,-3.0257,-3.029,-3.0342,-3.035,-3.036,-3.0491,-3.0454,-3.05,-3.058,-3.0625,-3.0641,-3.0655,-3.0703,-3.0721,-3.051,-3.0511,-3.0511,0,-3.0262,-3.0317,-3.0282,-3.0328,-3.0342,-3.0284,-3.0344,-3.035,-3.0365,-3.0376,-3.034,-3.0405,-3.0405,-3.0481,-3.0513,-3.0523,-3.0538,-3.0501,-3.0642,-3.0656,-3.0668,-3.0713,-3.0731,-3.0516,-3.0516,-3.0515,-3.0515,0,-3.0407,-3.0446,-3.0493,-3.0508,-3.0527,-3.058,-3.0553,-3.0576,-3.055,-3.0537,-3.0597,-3.0596,-3.0622,-3.0637,-3.0612,-3.071,-3.069,-3.0648,-3.0585,-3.0694,-3.0736,-3.0753,-3.0525,-3.0523,-3.0521,-3.0519,0,0,-3.0593,-3.0588,-3.0606,-3.0613,-3.0615,-3.0645,-3.0695,-3.0719,-3.0741,-3.0753,-3.0794,-3.084,-3.0801,-3.0813,-3.0788,-3.0828,-3.0933,-3.0781,-3.0781,-3.0811,-3.1041,-3.1073,-3.1094,-3.0907,-3.091,-3.0913,-3.1041,0,-3.0719,-3.0805,-3.0774,-3.0861,-3.0897,-3.0843,-3.0886,-3.0893,-3.0882,-3.0911,-3.0899,-3.0933,-3.0879,-3.0886,-3.0923,-3.0912,-3.0979,-3.0902,-3.0946,-3.0948,-3.0948,-3.1115,-3.1149,-3.127,-3.1057,-3.1059,-3.1061,0,-3.0878,-3.0897,-3.0988,-3.0984,-3.0998,-3.1038,-3.1058,-3.1086,-3.1093,-3.1082,-3.1096,-3.1062,-3.1111,-3.1046,-3.1114,-3.1063,-3.1079,-3.1076,-3.108,-3.1084,-3.1013,-3.1125,-3.1308,-3.1327,-3.1086,-3.1084,-3.1083,0,-3.1006,-3.1054,-3.1114,-3.1121,-3.1118,-3.1148,-3.1148,-3.115,-3.1167,-3.1185,-3.1196,-3.1219,-3.1233,-3.1252,-3.1225,-3.118,-3.1297,-3.123,-3.1291,-3.1292,-3.1319,-3.1318,-3.1508,-3.1327,-3.1327,-3.1326,-3.1326,0,-3.1151,-3.121,-3.1172,-3.1209,-3.1273,-3.1237,-3.1301,-3.1295,-3.1298,-3.1333,-3.1287,-3.1322,-3.1284,-3.1315,-3.1295,-3.1354,-3.136,-3.1354,-3.1348,-3.1359,-3.136,-3.137,-3.1361,-3.1331,-3.133,-3.1329,-3.1328,0,-3.1306,-3.1283,-3.1345,-3.1337,-3.1337,-3.1384,-3.1377,-3.1411,-3.1397,-3.1443,-3.1451,-3.143,-3.1464,-3.1439,-3.1473,-3.1459,-3.1538,-3.1519,-3.1536,-3.1532,-3.1594,-3.1589,-3.1799,-3.1825,-3.1626,-3.1628,-3.1629,0,-3.1401,-3.1444,-3.144,-3.1461,-3.1464,-3.1497,-3.1514,-3.1481,-3.15,-3.151,-3.1544,-3.1574,-3.1596,-3.1653,-3.1641,-3.1666,-3.1649,-3.1721,-3.1653,-3.1663,-3.1652,-3.165,-3.1655,-3.1735,-3.1738,-3.1739,-3.1741,0,-3.1572,-3.1558,-3.1584,-3.1607,-3.1629,-3.1645,-3.1657,-3.1677,-3.1642,-3.1667,-3.1701,-3.1718,-3.1753,-3.1783,-3.1804,-3.1804,-3.1768,-3.1762,-3.1778,-3.179,-3.1798,-3.1796,-3.1575,-3.1758,-3.1756,-3.1755,-3.1754,-3.1753,-3.17,-3.1736,-3.174,-3.177,-3.1776,-3.1789,-3.1821,-3.1811,-3.1838,-3.1864,-3.1842,-3.1883,-3.1888,-3.1912,-3.1917,-3.1949,-3.192,-3.1942,-3.1948,-3.1954,-3.1964,-3.1792,-3.1952,-3.1952,-3.1951,-3.1951,-3.1951,0,-3.187,-3.1869,-3.1898,-3.1916,-3.1941,-3.1903,-3.1915,-3.1938,-3.1975,-3.1982,-3.2005,-3.2045,-3.2074,-3.2063,-3.2089,-3.2117,-3.2101,-3.2125,-3.2124,-3.2125,-3.1988,-3.1972,-3.2138,-3.2138,-3.2138,-3.2138,-3.2138,-3.2138,-3.1961,-3.2021,-3.2007,-3.2069,-3.2068,-3.2108,-3.2118,-3.213,-3.2135,-3.2182,-3.2206,-3.2198,-3.2199,-3.2224,-3.225,-3.2246,-3.2258,-3.2289,-3.228,-3.2152,-3.2134,-3.2116,-3.2102,-3.2292,-3.2292,-3.2413,-3.2415,-3.2415]},{"header":{"parameterUnit":"m.s-1","parameterCategory":1,"la1":30.2991,"la2":30.254,"lo1":-89.0895,"lo2":-89.0444,"dy":0.0017,"dx":0.0017,"nx":28,"ny":28,"refTime":"2023-08-30T03:00:00:Z","depth":0,"parameterNumber":3,"parameterNumberName":"V-component_of_WINDS"},"data":[0,0,0,0,0,0,0,0,0,0,0,0,0,0,0,0,0,0,0,0,0,0,0,0,0,0,0,0,0,0,0,0,0,0,0,0,0,0,0,0,0,0,0,0,0,0,0,0,0,0,0,0,0,0,0,0,0,0,-2.1975,-2.1975,0,-2.199,-2.1991,-2.1991,-2.1963,-2.1962,-2.1961,-2.1961,-2.1975,-2.1977,-2.1978,0,0,0,0,0,0,0,0,0,0,0,0,0,-2.1919,-2.192,-2.1975,-2.1975,-2.1975,-2.199,-2.1991,-2.1991,-2.1963,-2.1962,-2.1961,-2.196,-2.1975,-2.1976,-2.1978,0,0,0,0,0,0,0,0,0,0,0,0,0,-2.194,-2.1921,-2.1975,-2.1963,-2.1962,-2.199,-2.1991,-2.1991,-2.1964,-2.1962,-2.1961,-2.196,-2.1974,-2.1976,-2.1978,-2.2018,0,0,-2.1984,-2.1985,0,0,0,0,0,0,0,0,-2.1939,-2.1942,-2.1965,-2.1964,-2.1963,-2.1973,-2.1976,-2.2,-2.1964,-2.1963,-2.196,-2.1959,-2.1976,-2.1977,-2.1983,-2.2018,-2.2019,-2.1984,-2.1985,-2.1986,-2.1987,0,0,0,0,0,0,0,-2.1937,-2.1941,-2.1981,-2.1965,-2.1964,-2.1957,-2.1958,-2.1981,-2.1977,-2.1963,-2.1961,-2.1963,-2.1975,-2.1982,-2.1984,-2.2019,-2.1984,-2.1986,-2.1987,-2.1988,-2.2087,-2.2088,0,0,0,0,0,0,-2.1938,-2.194,-2.198,-2.1981,-2.1947,-2.1959,-2.1961,-2.1972,-2.1977,-2.1976,-2.1965,-2.1962,-2.1979,-2.1981,-2.1984,-2.2031,-2.1986,-2.1988,-2.1989,-2.2085,-2.2087,-2.2089,0,0,0,0,0,0,-2.1937,-2.1942,-2.198,-2.196,-2.1965,-2.1961,-2.1974,-2.1973,-2.1979,-2.1978,-2.1977,-2.1972,-2.1978,-2.1981,-2.2009,-2.2031,-2.1989,-2.199,-2.2084,-2.2086,-2.2088,-2.2124,0,0,0,0,0,0,-2.1935,-2.1941,-2.1957,-2.1961,-2.1966,-2.2006,-2.1975,-2.1974,-2.1983,-2.198,-2.1985,-2.1984,-2.1977,-2.2007,-2.2011,-2.2033,-2.1992,-2.2082,-2.2085,-2.2087,-2.2121,-2.2128,-2.2133,0,0,0,0,0,-2.1933,-2.1966,-2.1958,-2.1963,-2.1985,-2.2007,-2.201,-2.2001,-2.1985,-2.2,-2.1999,-2.1984,-2.2028,-2.201,-2.2015,-2.2037,-2.208,-2.2084,-2.2087,-2.2119,-2.2126,-2.2133,0,0,0,0,0,0,-2.1964,-2.1966,-2.1957,-2.1992,-2.2,-2.2002,-2.2021,-2.201,-2.2022,-2.2018,-2.2007,-2.2008,-2.2039,-2.204,-2.2021,-2.2075,-2.2051,-2.2056,-2.2073,-2.2081,-2.2086,-2.2086,-2.1993,0,0,0,0,0,-2.1975,-2.1993,-2.1994,-2.2025,-2.2029,-2.2025,-2.2034,-2.2027,-2.2034,-2.2037,-2.2038,-2.2045,-2.206,-2.207,-2.2084,-2.2121,-2.2122,-2.2139,-2.2144,-2.2149,-2.2154,-2.2173,-2.2181,-2.21,-2.21,-2.21,0,0,-2.1998,-2.2001,-2.2014,-2.2031,-2.2036,-2.2055,-2.2028,-2.2048,-2.2062,-2.204,-2.2067,-2.2068,-2.2074,-2.2107,-2.2122,-2.211,-2.2176,-2.2154,-2.2157,-2.2159,-2.2178,-2.2185,-2.2192,-2.2102,-2.2102,-2.2101,0,0,-2.2049,-2.2054,-2.208,-2.2086,-2.2093,-2.209,-2.2096,-2.2101,-2.2101,-2.2127,-2.2111,-2.2127,-2.2153,-2.2159,-2.2165,-2.2218,-2.2205,-2.2222,-2.2254,-2.2273,-2.2279,-2.2285,-2.2304,-2.2311,-2.2227,-2.2227,-2.2227,0,-2.2077,-2.2105,-2.2095,-2.2117,-2.2125,-2.2106,-2.2133,-2.2138,-2.215,-2.2156,-2.2142,-2.2175,-2.2178,-2.2212,-2.2225,-2.223,-2.2237,-2.2222,-2.2279,-2.2285,-2.229,-2.2308,-2.2315,-2.2229,-2.2229,-2.2228,-2.2228,0,-2.2138,-2.2158,-2.2178,-2.219,-2.22,-2.2225,-2.2218,-2.223,-2.2221,-2.2219,-2.2247,-2.225,-2.2264,-2.2271,-2.2263,-2.2304,-2.2296,-2.2281,-2.2257,-2.23,-2.2317,-2.2324,-2.2232,-2.2231,-2.2231,-2.223,0,0,-2.221,-2.2217,-2.2224,-2.223,-2.2237,-2.2251,-2.2274,-2.2288,-2.2299,-2.2307,-2.2326,-2.2348,-2.2334,-2.2341,-2.2334,-2.2351,-2.2392,-2.2333,-2.2333,-2.2344,-2.2438,-2.245,-2.2458,-2.2383,-2.2385,-2.2386,-2.2437,0,-2.2262,-2.2302,-2.2294,-2.2333,-2.2351,-2.2332,-2.2352,-2.2358,-2.2357,-2.2371,-2.2369,-2.2386,-2.2365,-2.237,-2.2385,-2.2384,-2.2411,-2.238,-2.2401,-2.2402,-2.2401,-2.2467,-2.248,-2.2529,-2.2444,-2.2445,-2.2446,0,-2.2327,-2.2339,-2.238,-2.2384,-2.2391,-2.2409,-2.2422,-2.2436,-2.2442,-2.2439,-2.2447,-2.2436,-2.2459,-2.2433,-2.2464,-2.2443,-2.2451,-2.2451,-2.2453,-2.2455,-2.2427,-2.2472,-2.2544,-2.2551,-2.2456,-2.2455,-2.2454,0,-2.2377,-2.2402,-2.243,-2.2435,-2.244,-2.2454,-2.2456,-2.2461,-2.247,-2.248,-2.2486,-2.2499,-2.2506,-2.2516,-2.2508,-2.249,-2.254,-2.2514,-2.2539,-2.2539,-2.2551,-2.255,-2.2626,-2.2554,-2.2554,-2.2554,-2.2554,0,-2.2436,-2.2462,-2.2453,-2.247,-2.2498,-2.2488,-2.2516,-2.2517,-2.2521,-2.2538,-2.2522,-2.2538,-2.2527,-2.2541,-2.2535,-2.2562,-2.2565,-2.2563,-2.2562,-2.2565,-2.2566,-2.2571,-2.2568,-2.2556,-2.2556,-2.2555,-2.2555,0,-2.2496,-2.2491,-2.252,-2.2523,-2.2524,-2.2545,-2.2546,-2.2562,-2.2559,-2.258,-2.2585,-2.258,-2.2597,-2.259,-2.2607,-2.2603,-2.2637,-2.263,-2.2635,-2.2634,-2.2659,-2.2657,-2.2741,-2.2752,-2.2673,-2.2674,-2.2675,0,-2.2534,-2.2554,-2.2558,-2.2569,-2.2573,-2.2589,-2.2598,-2.2589,-2.2599,-2.2607,-2.2622,-2.2637,-2.2649,-2.2676,-2.2674,-2.2687,-2.2681,-2.271,-2.2683,-2.2686,-2.2682,-2.2681,-2.2683,-2.2715,-2.2716,-2.2717,-2.2718,0,-2.2603,-2.2599,-2.2614,-2.2627,-2.2638,-2.2648,-2.2656,-2.2665,-2.2656,-2.2668,-2.2685,-2.2694,-2.2712,-2.2727,-2.2739,-2.2741,-2.2728,-2.2726,-2.2732,-2.2737,-2.2739,-2.2739,-2.265,-2.2724,-2.2723,-2.2723,-2.2723,-2.2722,-2.2654,-2.2671,-2.2676,-2.2693,-2.2698,-2.2706,-2.2721,-2.272,-2.2734,-2.2748,-2.2741,-2.2761,-2.2766,-2.278,-2.2784,-2.2799,-2.2787,-2.2797,-2.2799,-2.2802,-2.2806,-2.2736,-2.2801,-2.28,-2.28,-2.28,-2.28,0,-2.2722,-2.2725,-2.274,-2.2752,-2.2765,-2.2751,-2.276,-2.2771,-2.2789,-2.2795,-2.2807,-2.2826,-2.2841,-2.2839,-2.2853,-2.2865,-2.2859,-2.2869,-2.2868,-2.2869,-2.2815,-2.2808,-2.2873,-2.2873,-2.2873,-2.2873,-2.2873,-2.2873,-2.276,-2.2787,-2.2784,-2.2814,-2.2816,-2.2836,-2.2842,-2.2849,-2.2854,-2.2876,-2.2888,-2.2888,-2.2891,-2.2904,-2.2917,-2.2916,-2.2922,-2.2934,-2.2931,-2.288,-2.2873,-2.2866,-2.286,-2.2935,-2.2935,-2.2984,-2.2984,-2.2985]}]]